FW7886 Weather Reports


Display with metric or nautical units.
time (UTC)temp
F
wind
direction
speed
MPH
gust
MPH
rain 1hr
in
rain 24hr
in
rain mn
in
humidity
%
barometer
mb
20260902203308 92 34 4.0 8.0 0.00 0.00 0.00 70 1014.9
20260902202809 92 294 4.0 6.0 0.00 0.00 0.00 72 1014.8
20260902202308 91 271 4.0 6.0 0.00 0.00 0.00 72 1014.7
20260902201801 91 81 3.0 6.0 0.00 0.00 0.00 73 1014.8
20260902201254 91 246 3.0 4.0 0.00 0.00 0.00 76 1015.0
20260902200748 91 245 3.0 5.0 0.00 0.00 0.00 75 1015.0
20260902200243 91 268 3.0 5.0 0.00 0.00 0.00 77 1015.1
20260902195741 91 270 3.0 4.0 0.00 0.00 0.00 76 1015.1
20260902195505 92 207 3.0 6.0 0.00 0.00 0.00 78 1015.3
20260902194741 92 214 5.0 16.0 0.00 0.00 0.00 78 1015.3
20260902194241 92 244 6.0 16.0 0.00 0.00 0.00 75 1015.1
20260902193741 92 256 5.0 10.0 0.00 0.00 0.00 73 1015.1
20260902193241 92 310 4.0 10.0 0.00 0.00 0.00 73 1015.1
20260902192740 91 293 4.0 9.0 0.00 0.00 0.00 71 1015.1
20260902192237 92 184 5.0 8.0 0.00 0.00 0.00 72 1015.2
20260902191735 92 322 3.0 8.0 0.00 0.00 0.00 71 1015.3
20260902191237 93 319 3.0 8.0 0.00 0.00 0.00 70 1015.4
20260902190737 93 267 3.0 9.0 0.00 0.00 0.00 68 1015.5
20260902190501 93 80 3.0 9.0 0.00 0.00 0.00 66 1015.4
20260902185736 93 308 3.0 8.0 0.00 0.00 0.00 65 1015.5
20260902185236 93 264 3.0 4.0 0.00 0.00 0.00 68 1015.5
20260902184735 93 312 4.0 9.0 0.00 0.00 0.00 67 1015.6
20260902184236 93 67 4.0 9.0 0.00 0.00 0.00 67 1015.7
20260902183730 93 72 4.0 8.0 0.00 0.00 0.00 67 1015.8
20260902183225 93 274 4.0 10.0 0.00 0.00 0.00 67 1015.8
20260902182719 93 54 3.0 10.0 0.00 0.00 0.00 65 1015.9
20260902182212 92 343 3.0 8.0 0.00 0.00 0.00 66 1015.9
20260902181706 93 252 3.0 8.0 0.00 0.00 0.00 64 1015.9
20260902181200 92 284 3.0 8.0 0.00 0.00 0.00 66 1015.9
20260902180654 92 52 3.0 8.0 0.00 0.00 0.00 64 1016.0
20260902180413 92 312 3.0 6.0 0.00 0.00 0.00 66 1016.0
20260902175643 93 304 1.0 6.0 0.00 0.00 0.00 65 1016.0
20260902175137 92 151 1.0 6.0 0.00 0.00 0.00 67 1016.0
20260902174630 92 343 3.0 8.0 0.00 0.00 0.00 68 1016.1
20260902174124 92 15 3.0 8.0 0.00 0.00 0.00 69 1016.2
20260902173617 92 253 1.0 4.0 0.00 0.00 0.00 70 1016.2
20260902173112 92 246 1.0 5.0 0.00 0.00 0.00 70 1016.2
20260902172606 92 246 3.0 9.0 0.00 0.00 0.00 71 1016.3
20260902172100 91 73 3.0 9.0 0.00 0.00 0.00 70 1016.4
20260902171554 91 42 3.0 9.0 0.00 0.00 0.00 70 1016.5
20260902171048 92 293 1.0 9.0 0.00 0.00 0.00 71 1016.6
20260902170542 91 139 1.0 5.0 0.00 0.00 0.00 77 1016.6
20260902170036 90 230 3.0 5.0 0.00 0.00 0.00 74 1016.7
20260902165530 91 311 1.0 5.0 0.00 0.00 0.00 76 1016.9
20260902165024 90 111 1.0 6.0 0.00 0.00 0.00 76 1016.9
20260902164518 91 312 1.0 6.0 0.00 0.00 0.00 74 1017.1
20260902164012 91 249 1.0 5.0 0.00 0.00 0.00 77 1017.1
20260902163506 90 310 1.0 5.0 0.00 0.00 0.00 79 1017.2
20260902163224 89 292 3.0 5.0 0.00 0.00 0.00 80 1017.4
20260902162455 88 357 3.0 6.0 0.00 0.00 0.00 84 1017.3
20260902161948 87 255 3.0 6.0 0.00 0.00 0.00 84 1017.4
20260902161705 85 304 3.0 6.0 0.00 0.00 0.00 86 1017.4
20260902160936 85 83 3.0 5.0 0.00 0.00 0.00 89 1017.5
20260902160654 84 26 3.0 6.0 0.00 0.00 0.00 89 1017.6
20260902155924 84 78 3.0 6.0 0.00 0.00 0.00 90 1017.6
20260902155641 84 289 3.0 6.0 0.00 0.00 0.00 89 1017.6
20260902154912 85 298 3.0 6.0 0.00 0.00 0.00 90 1017.6
20260902153900 86 88 3.0 6.0 0.00 0.00 0.00 88 1017.4
20260902153354 86 217 1.0 6.0 0.00 0.00 0.00 88 1017.5
20260902152847 85 310 1.0 5.0 0.00 0.00 0.00 91 1017.3
20260902152341 84 310 1.0 5.0 0.00 0.00 0.00 93 1017.2
20260902151836 84 291 1.0 5.0 0.00 0.00 0.00 99 1017.2
20260902151330 83 193 1.0 5.0 0.00 0.00 0.00 98 1017.3
20260902150823 84 210 1.0 5.0 0.00 0.00 0.00 100 1017.4
20260902150318 83 272 3.0 5.0 0.00 0.00 0.00 100 1017.4
20260902145812 83 31 3.0 5.0 0.00 0.00 0.00 99 1017.3
20260902145307 83 321 1.0 5.0 0.00 0.00 0.00 100 1017.3
20260902145018 83 283 3.0 8.0 0.00 0.00 0.00 100 1017.3
20260902144254 83 295 1.0 8.0 0.00 0.00 0.00 100 1017.3
20260902144223 83 326 1.0 5.0 0.00 0.00 0.00 100 1017.2
20260902143838 83 303 3.0 5.0 0.00 0.00 0.00 100 1017.3
20260902143011 83 289 1.0 5.0 0.00 0.00 0.00 100 1017.1
20260902142242 82 282 1.0 4.0 0.00 0.00 0.00 100 1017.1
20260902141742 82 168 1.0 4.0 0.00 0.00 0.00 100 1017.2
20260902141241 82 141 1.0 4.0 0.00 0.00 0.00 100 1016.9
20260902141005 82 275 1.0 4.0 0.00 0.00 0.00 100 1017.1
20260902140239 81 170 3.0 5.0 0.00 0.00 0.00 100 1017.1
20260902135738 81 290 1.0 5.0 0.00 0.00 0.00 100 1017.0
20260902135237 81 189 1.0 4.0 0.00 0.00 0.00 100 1017.0
20260902134738 81 177 0.0 4.0 0.00 0.00 0.00 100 1016.9
20260902134238 81 290 0.0 4.0 0.00 0.00 0.00 100 1016.8
20260902133735 81 177 0.0 3.0 0.00 0.00 0.00 100 1016.8
20260902133233 80 190 1.0 4.0 0.00 0.00 0.00 100 1016.8
20260902132733 80 192 1.0 4.0 0.00 0.00 0.00 100 1016.9
20260902132235 80 137 0.0 3.0 0.00 0.00 0.00 100 1016.9
20260902131734 80 137 0.0 1.0 0.00 0.00 0.00 100 1016.8
20260902131232 79 139 0.0 3.0 0.00 0.00 0.00 100 1016.9
20260902130731 79 106 0.0 3.0 0.00 0.00 0.00 100 1016.8
20260902130230 79 96 1.0 3.0 0.00 0.00 0.00 100 1016.8
20260902125729 78 357 1.0 3.0 0.00 0.00 0.00 100 1016.8
20260902125448 78 106 0.0 3.0 0.00 0.00 0.00 100 1016.8
20260902124954 78 83 0.0 3.0 0.00 0.00 0.00 100 1016.6
20260902124447 78 80 0.0 3.0 0.00 0.00 0.00 100 1016.5
20260902123726 78 78 0.0 1.0 0.00 0.00 0.00 100 1016.4
20260902123226 78 87 0.0 0.0 0.00 0.00 0.00 100 1016.4
20260902122725 77 81 0.0 0.0 0.00 0.00 0.00 100 1016.3
20260902122225 77 85 0.0 0.0 0.00 0.00 0.00 100 1016.2
20260902121726 77 137 0.0 0.0 0.00 0.00 0.00 100 1016.2
20260902121225 76 83 0.0 0.0 0.00 0.00 0.00 100 1016.1
20260902120726 76 86 0.0 0.0 0.00 0.00 0.00 100 1016.2
20260902120222 76 99 0.0 0.0 0.00 0.00 0.00 100 1016.1
20260902115721 76 165 0.0 0.0 0.00 0.00 0.00 100 1016.1
20260902115439 76 165 0.0 0.0 0.00 0.00 0.00 100 1015.9
20260902114722 76 165 0.0 0.0 0.00 0.00 0.00 100 1015.8
20260902114443 76 165 0.0 0.0 0.00 0.00 0.00 100 1015.6
20260902113943 76 165 0.0 0.0 0.00 0.00 0.00 100 1015.6
20260902113222 76 165 0.0 0.0 0.00 0.00 0.00 100 1015.5
20260902112946 76 165 0.0 0.0 0.00 0.00 0.00 100 1015.4
20260902112222 76 165 0.0 0.0 0.00 0.00 0.00 100 1015.4
20260902111717 76 165 0.0 0.0 0.00 0.00 0.00 100 1015.5
20260902111216 76 165 0.0 0.0 0.00 0.00 0.00 100 1015.5
20260902110718 76 165 0.0 0.0 0.00 0.00 0.00 100 1015.4
20260902110217 76 165 0.0 0.0 0.00 0.00 0.00 100 1015.3
20260902105716 76 165 0.0 0.0 0.00 0.00 0.00 100 1015.2
20260902105214 76 165 0.0 0.0 0.00 0.00 0.00 100 1015.2
20260902104713 76 165 0.0 0.0 0.00 0.00 0.00 100 1015.1
20260902104214 76 165 0.0 0.0 0.00 0.00 0.00 100 1015.2
20260902103713 76 165 0.0 0.0 0.00 0.00 0.00 100 1015.2
20260902103426 76 165 0.0 0.0 0.00 0.00 0.00 100 1015.2
20260902102713 76 165 0.0 0.0 0.00 0.00 0.00 100 1015.2
20260902102211 76 165 0.0 0.0 0.00 0.00 0.00 100 1015.3
20260902101931 76 165 0.0 0.0 0.00 0.00 0.00 100 1015.1
20260902101207 76 165 0.0 0.0 0.00 0.00 0.00 100 1015.1
20260902100701 76 165 0.0 0.0 0.00 0.00 0.00 100 1014.9
20260902100155 76 165 0.0 0.0 0.00 0.00 0.00 100 1015.0
20260902095649 76 165 0.0 0.0 0.00 0.00 0.00 100 1015.1
20260902095143 77 165 0.0 0.0 0.00 0.00 0.00 100 1015.1
20260902094637 77 165 0.0 0.0 0.00 0.00 0.00 100 1015.0
20260902094131 77 165 0.0 0.0 0.00 0.00 0.00 100 1015.0
20260902093625 77 165 0.0 0.0 0.00 0.00 0.00 100 1014.9
20260902093119 77 165 0.0 0.0 0.00 0.00 0.00 100 1014.9
20260902092837 76 165 0.0 0.0 0.00 0.00 0.00 100 1014.9
20260902092107 76 165 0.0 0.0 0.00 0.00 0.00 100 1014.9
20260902091827 76 165 0.0 0.0 0.00 0.00 0.00 100 1015.0
20260902091055 76 165 0.0 0.0 0.00 0.00 0.00 100 1015.0
20260902090549 76 165 0.0 0.0 0.00 0.00 0.00 100 1014.8
20260902090044 77 165 0.0 0.0 0.00 0.00 0.00 100 1014.9
20260902085538 77 165 0.0 0.0 0.00 0.00 0.00 100 1014.9
20260902085031 77 165 0.0 0.0 0.00 0.00 0.00 100 1014.9
20260902084525 77 165 0.0 0.0 0.00 0.00 0.00 100 1014.8
20260902084019 77 165 0.0 0.0 0.00 0.00 0.00 100 1014.9
20260902083513 77 165 0.0 0.0 0.00 0.00 0.00 100 1014.9
20260902083241 77 165 0.0 0.0 0.00 0.00 0.00 100 1014.9
20260902082501 77 165 0.0 0.0 0.00 0.00 0.00 100 1014.9
20260902081955 78 165 0.0 0.0 0.00 0.00 0.00 100 1014.9
20260902081450 78 165 0.0 0.0 0.00 0.00 0.00 100 1014.9
20260902080943 78 165 0.0 0.0 0.00 0.00 0.00 100 1015.0
20260902080437 78 165 0.0 0.0 0.00 0.00 0.00 100 1015.1
20260902080149 78 165 0.0 0.0 0.00 0.00 0.00 99 1015.1
20260902075425 78 165 0.0 0.0 0.00 0.00 0.00 99 1015.2
20260902075134 78 165 0.0 0.0 0.00 0.00 0.00 100 1015.2
20260902074413 78 165 0.0 0.0 0.00 0.00 0.00 100 1015.3
20260902074129 78 165 0.0 0.0 0.00 0.00 0.00 100 1015.3
20260902073401 78 172 0.0 0.0 0.00 0.00 0.00 100 1015.3
20260902072855 78 172 0.0 1.0 0.00 0.00 0.00 100 1015.4
20260902072349 78 172 0.0 1.0 0.00 0.00 0.00 100 1015.1
20260902072112 78 171 0.0 1.0 0.00 0.00 0.00 100 1015.1
20260902071337 78 174 0.0 0.0 0.00 0.00 0.00 100 1015.1
20260902070831 78 174 0.0 0.0 0.00 0.00 0.00 99 1015.2
20260902070325 78 174 0.0 0.0 0.00 0.00 0.00 99 1015.0
20260902065819 78 174 0.0 1.0 0.00 0.00 0.00 99 1014.9
20260902065313 78 177 0.0 1.0 0.00 0.00 0.00 99 1015.0
20260902065252 78 171 0.0 0.0 0.00 0.00 0.00 99 1015.0
20260902064301 78 171 0.0 0.0 0.00 0.00 0.00 99 1015.1
20260902064240 78 171 0.0 0.0 0.00 0.00 0.00 99 1015.3
20260902063249 78 171 0.0 0.0 0.00 0.00 0.00 99 1015.4
20260902062743 78 173 0.0 0.0 0.00 0.00 0.00 99 1015.4
20260902062237 78 172 0.0 0.0 0.00 0.00 0.00 98 1015.3
20260902061731 78 172 0.0 0.0 0.00 0.00 0.00 98 1015.1
20260902061717 78 172 0.0 0.0 0.00 0.00 0.00 98 1015.1
20260902060720 78 172 0.0 0.0 0.00 0.00 0.00 98 1015.1
20260902060439 79 172 0.0 1.0 0.00 0.00 0.00 98 1015.2
20260902055925 79 173 0.0 3.0 0.00 0.00 0.00 98 1015.2
20260902055201 79 173 0.0 3.0 0.00 0.00 0.00 98 1015.1
20260902054912 79 171 0.0 0.0 0.00 0.00 0.00 98 1015.1
20260902054149 79 171 0.0 0.0 0.00 0.00 0.00 98 1015.3
20260902053643 79 171 0.0 1.0 0.00 0.00 0.00 98 1015.3
20260902053407 79 172 0.0 1.0 0.00 0.00 0.00 98 1015.3
20260902053131 79 171 0.0 1.0 0.00 0.00 0.00 98 1015.5
20260902052140 79 172 0.0 3.0 0.00 0.00 0.00 98 1015.3
20260902051639 79 172 0.0 4.0 0.00 0.00 0.00 97 1015.3
20260902051137 79 234 1.0 4.0 0.00 0.00 0.00 98 1015.3
20260902050636 79 234 1.0 3.0 0.00 0.00 0.00 98 1015.2
20260902050141 79 223 1.0 3.0 0.00 0.00 0.00 98 1015.2
20260902045639 79 188 0.0 3.0 0.00 0.00 0.00 98 1015.2
20260902045136 79 187 0.0 1.0 0.00 0.00 0.00 98 1015.5
20260902044636 79 187 0.0 1.0 0.00 0.00 0.00 98 1015.6
20260902044136 79 128 0.0 1.0 0.00 0.00 0.00 97 1015.6
20260902043634 79 154 0.0 1.0 0.00 0.00 0.00 97 1015.8
20260902043357 79 184 0.0 1.0 0.00 0.00 0.00 97 1015.8
20260902042634 79 184 0.0 3.0 0.00 0.00 0.00 97 1015.8
20260902042134 79 184 0.0 3.0 0.00 0.00 0.00 97 1015.7
20260902041859 80 194 0.0 3.0 0.00 0.00 0.00 97 1015.7
20260902041128 80 225 1.0 3.0 0.00 0.00 0.00 97 1015.7
20260902040627 80 225 1.0 4.0 0.00 0.00 0.00 97 1015.7
20260902040130 80 262 1.0 4.0 0.00 0.00 0.00 97 1015.7
20260902040111 80 285 1.0 4.0 0.00 0.00 0.00 97 1015.7
20260902035116 80 271 3.0 4.0 0.00 0.00 0.00 97 1015.7
20260902034611 80 296 3.0 4.0 0.00 0.00 0.00 97 1015.7
20260902034103 80 239 3.0 6.0 0.00 0.00 0.00 97 1015.7
20260902033558 80 68 3.0 6.0 0.00 0.00 0.00 97 1015.7
20260902033051 80 323 4.0 6.0 0.00 0.00 0.00 97 1015.6
20260902032545 80 316 4.0 6.0 0.00 0.00 0.00 96 1015.5
20260902032040 80 299 3.0 6.0 0.00 0.00 0.00 97 1015.5
20260902031759 80 314 3.0 5.0 0.00 0.00 0.00 97 1015.5
20260902031027 80 274 3.0 5.0 0.00 0.00 0.00 96 1015.7
20260902030522 80 300 1.0 4.0 0.00 0.00 0.00 96 1015.8
20260902030016 80 255 1.0 3.0 0.00 0.00 0.00 96 1015.9
20260902025734 80 255 1.0 4.0 0.00 0.00 0.00 96 1015.9
20260902025004 80 314 1.0 4.0 0.00 0.00 0.00 97 1015.8
20260902024458 80 253 1.0 4.0 0.00 0.00 0.00 97 1015.7
20260902023952 80 253 0.0 3.0 0.00 0.00 0.00 96 1015.5
20260902023446 80 296 0.0 4.0 0.00 0.00 0.00 96 1015.5
20260902023421 80 296 0.0 4.0 0.00 0.00 0.00 96 1015.4
20260902022434 80 304 0.0 3.0 0.00 0.00 0.00 95 1015.4
20260902022416 80 304 0.0 0.0 0.00 0.00 0.00 95 1015.3
20260902021915 80 304 0.0 3.0 0.00 0.00 0.00 95 1015.3
20260902020917 80 304 0.0 3.0 0.00 0.00 0.00 95 1015.3
20260902020410 80 290 0.0 1.0 0.00 0.00 0.00 95 1015.2
20260902015904 80 290 0.0 1.0 0.00 0.00 0.00 94 1015.3
20260902015358 80 290 0.0 1.0 0.00 0.00 0.00 94 1015.2
20260902014852 81 290 0.0 1.0 0.00 0.00 0.00 94 1015.2
20260902014612 81 290 0.0 3.0 0.00 0.00 0.00 94 1015.1
20260902013840 81 290 0.0 3.0 0.00 0.00 0.00 94 1015.1
20260902013555 81 290 0.0 3.0 0.00 0.00 0.00 94 1015.0
20260902012828 81 290 1.0 3.0 0.00 0.00 0.00 94 1015.0
20260902012321 81 290 0.0 3.0 0.00 0.00 0.00 94 1015.0
20260902011816 81 290 0.0 3.0 0.00 0.00 0.00 94 1014.9
20260902011309 81 290 0.0 3.0 0.00 0.00 0.00 94 1014.9
20260902010804 81 290 0.0 3.0 0.00 0.00 0.00 93 1014.9
20260902010258 81 290 0.0 3.0 0.00 0.00 0.00 93 1014.9
20260902010016 82 290 1.0 3.0 0.00 0.00 0.00 93 1014.9
20260902005250 82 303 0.0 3.0 0.00 0.00 0.00 92 1014.9
20260902004749 82 303 0.0 3.0 0.00 0.00 0.00 92 1014.9
20260902004248 82 304 1.0 3.0 0.00 0.00 0.00 92 1014.9
20260902003747 82 304 3.0 4.0 0.00 0.00 0.00 91 1014.7
20260902003248 82 315 1.0 4.0 0.00 0.00 0.00 91 1014.7
20260902002749 82 319 3.0 4.0 0.00 0.00 0.00 91 1014.6
20260902002248 82 279 3.0 4.0 0.00 0.00 0.00 91 1014.5
20260902001748 82 261 3.0 5.0 0.00 0.00 0.00 91 1014.4
20260902001247 82 260 3.0 5.0 0.00 0.00 0.00 90 1014.4
20260902000752 83 309 3.0 5.0 0.00 0.00 0.00 90 1014.4
20260902000249 83 265 1.0 4.0 0.00 0.00 0.00 89 1014.5
20260901235748 83 312 1.0 4.0 0.00 0.00 0.00 89 1014.5
20260901235248 83 258 3.0 5.0 0.00 0.00 0.00 89 1014.6
20260901234748 83 345 3.0 5.0 0.00 0.00 0.00 88 1014.5
20260901234248 83 304 1.0 6.0 0.00 0.00 0.00 88 1014.5
20260901233749 83 176 1.0 6.0 0.00 0.00 0.00 88 1014.4
20260901233513 83 294 1.0 6.0 0.00 0.00 0.00 87 1014.5
20260901233009 83 296 1.0 6.0 0.00 0.00 0.00 88 1014.5
20260901232240 84 305 1.0 6.0 0.00 0.00 0.00 87 1014.4
20260901231740 84 110 3.0 6.0 0.00 0.00 0.00 88 1014.5
20260901231241 83 313 3.0 6.0 0.00 0.00 0.00 87 1014.5
20260901230741 83 290 3.0 8.0 0.00 0.00 0.00 87 1014.4
20260901230237 83 143 4.0 8.0 0.00 0.00 0.00 87 1014.5
20260901225739 83 223 4.0 8.0 0.00 0.00 0.00 88 1014.5
20260901225505 83 283 3.0 8.0 0.00 0.00 0.00 88 1014.7
20260901225000 83 219 3.0 6.0 0.00 0.00 0.00 87 1014.8
20260901224240 83 304 1.0 6.0 0.00 0.00 0.00 87 1014.8
20260901223737 83 188 1.0 5.0 0.00 0.00 0.00 88 1014.8
20260901223238 83 208 1.0 5.0 0.00 0.00 0.00 88 1014.8
20260901222739 83 304 1.0 5.0 0.00 0.00 0.00 88 1014.9
20260901222237 83 248 0.0 5.0 0.00 0.00 0.00 87 1014.9
20260901221738 83 184 1.0 4.0 0.00 0.00 0.00 88 1014.8
20260901221233 83 157 1.0 5.0 0.00 0.00 0.00 88 1014.9
20260901220956 83 236 0.0 5.0 0.00 0.00 0.00 88 1014.9
20260901220231 83 328 0.0 3.0 0.00 0.00 0.00 88 1014.9
20260901215955 82 328 1.0 3.0 0.00 0.00 0.00 89 1015.1
20260901215232 82 172 1.0 4.0 0.00 0.00 0.00 89 1015.1
20260901214734 82 315 1.0 5.0 0.00 0.00 0.00 89 1015.0
20260901214233 82 291 3.0 5.0 0.00 0.00 0.00 88 1015.1
20260901213732 82 283 3.0 5.0 0.00 0.00 0.00 89 1015.2
20260901213233 82 296 3.0 6.0 0.00 0.00 0.00 89 1015.2
20260901213207 81 319 4.0 8.0 0.00 0.00 0.00 89 1015.4
20260901212229 81 280 4.0 8.0 0.00 0.00 0.00 88 1015.2
20260901211728 81 280 3.0 6.0 0.00 0.00 0.00 89 1015.3
20260901211228 81 283 1.0 6.0 0.00 0.00 0.00 90 1015.3
20260901210728 81 273 1.0 6.0 0.00 0.00 0.00 89 1015.2
20260901210715 81 338 1.0 5.0 0.00 0.00 0.00 89 1015.2
20260901205728 81 243 1.0 4.0 0.00 0.00 0.00 89 1015.1
20260901205228 81 211 0.0 3.0 0.00 0.00 0.00 89 1015.1
20260901204729 80 260 1.0 4.0 0.00 0.00 0.00 89 1015.2
20260901204221 80 260 3.0 5.0 0.00 0.00 0.00 90 1015.5
20260901203720 80 347 1.0 5.0 0.00 0.00 0.00 90 1015.4